DMSP 5D-2 F13 DEB, 40677

Orbit data source: Space-Track

DMSP 5D-2 F13 DEB, 40677 is space debris in SSO originally from a launch on Fri, 24 Mar 1995 UTC launched from the Air Force Western Test Range (AFWTR). Debris objects in space refer to the collection of defunct objects orbiting the Earth. Examples of debris include non-operational satellites, rocket bodies, and fragments generated from explosions, collisions, or faulty payload assembly.

Loading next visibility...
Identifier
40677, 1995-015FR
Orbit
SSO
Country
Flag of USUS
Related business
Manufacturer
Unknown
Mission
Spacecraft
Bus & Motor
Unknown
Mass
Unknown
Launch date (UTC)
1995-03-24 (31 years ago)
Launch vehicle
Unknown
Launch site
Air Force Western Test Range (AFWTR)
Object type
Payload
Rocket body
Debris
Shape & HBR
Unknown shape, 0.1 m
Radar Cross Section
Small (<0.1 m²)

Expand to show TLE details & history
Last TLE update: 1 day ago

TLE from 1 day ago
0 DMSP 5D-2 F13 DEB
1 40677U 95015FR  25340.26485335  .00001074  00000-0  44566-3 0  9994
2 40677  98.5983 355.1794 0049326 109.5380 251.1137 14.27883204552890
Epoch: 2025-12-06T06:21Z
TLE epoch observation values (Epoch: 2025-12-06T06:21:23.329Z)
Latitude
-0.00006°
Longitude
-175.46287°
Altitude
813.361 km
Speed
7.441 km/s
True Right ascension
23h 40m 43s
True Declination
0° 00' 00"
Sunlit
Object was in daylight at epoch
Visualization orbit readout
Latitude
Unknown
Longitude
Unknown
Altitude
Unknown
Speed
Unknown
Apparent Right ascension
Unknown
Apparent Declination
Unknown
Sunlit
N/A
Visualization observer readout
Local Sidereal Time
14:13:29
Azimuth
Unknown
Elevation
Unknown
Doppler factor
Unknown
Orbital elements
Apogee altitude
831.345 km
Perigee altitude
760.571 km
Semi-major axis
7,174.095 km
Eccentricity
0.00493
Inclination
98.5983°
RAAN
355.1794°
Arg. of periapsis
109.538°
True anomaly
250.57997°
Mean anomaly
251.1137°
Eccentric anomaly
250.84673°
Mean motion
3.57184 °/min
Orbital period
100.79 mins
BSTAR
0.00044566
Loading maneuver chart data...
Computing Atmospheric mass density...

Documentation

Showing up to 5 results
|